Retour au catalogue

OPS 4467 A

ActifMilitairePO
NORAD 812·PAYLOAD·🇺🇸 United States

Lancé Jun 18, 1964 depuis Vandenberg Space Force Base

Loading…

Prochains Passages (prochaines 24 heures)

TLE

FraisSource: Space-Track

Époque: Sep 14, 2026, 10:41 UTC

1 00812U 64031A   26257.44550166  .00000024  00000-0  33620-4 0  9992
2 00812  99.8324  63.2681 0005359 188.8819 171.2263 14.24611149229007

Suivez OPS 4467 A en temps réel avec AllMySat

Download on the App Store